SCP
0 0 -0 0 0 0 0 0 0 0 -0 -0 -0 -0 -0 -0 -0 -0 -0 -0 -0 -0 -0 -0 -0 -0 -0 -0 -0 -0 -0 -0 -0 -0 -0 -0 -0 -0 -0 -0 -0 -0 -0
-0 0 0 0 0 0 0 0 0 0 -0 -0 -0 -0 -0 -0 -0 -0 -0 -0 -0 -0 -0 -0 -0 -0 -0 -0 -0 -0 -0 -0 -0 -0 0 -0 -0 -0 -0 -0 -0 -0 -0
-0 0 -0 -0 -0 -0 0 0 0 0 -0 -0 -0 -0 -0 -0 -0 -0 -0 -0 -0 -0 -0 -0 -0 -0 -0 -0 -0 -0 -0 -0 -0 -0 -0 -0 -0 -0 -0 -0 -0 -0 -0
-0 0 0 -0 -0 -0 -0 0 0 -0 -0 -0 -0 -0 -0 -0 -0 -0 -0 -0 -0 -0 -0 -0 -0 -0 -0 -0 -0 -0 -0 -0 -0 -0 -0 -0 -0 -0 -0 -0 -0 -0 -0
-0 -0 0 0 -0 -0 -0 -0 -0 -0 0 -0 -0 -0 -0 -0 -0 -0 -0 -0 -0 -0 -0 -0 -0 -0 -0 -0 -0 -0 -0 -0 -0 -0 -0 0 0 -0 -0 -0 -0 -0 -0
0 -0 -0 -0 -0 -0 -0 -0 -0 -0 -0 -0 -0 -0 -0 -0 -0 -0 -0 -0 -0 -0 -0 -0 -0 -0 -0 -0 -0 -0 -0 -0 0 0 0 0 0 -0 -0 -0 -0 -0 -0
-0 -0 0 0 0 -0 0 -0 -0 -0 -0 -0 -0 -0 -0 -0 -0 -0 -0 -0 -0 -0 -0 -0 -0 -0 -0 -0 -0 -0 0 0 0 0 0 0 0 -0 -0 -0 -0 -0 -0
0 0 0 0 0 0 0 0 0 0 0 -0 -0 -0 -0 -0 -0 -0 -0 -0 -0 -0 -0 -0 -0 -0 -0 -0 0 0 0 0 0 0 0 0 0 -0 -0 -0 -0 -0 0
0 0 0 0 0 0 0 0 0 0 -0 -0 -0 -0 -0 -0 -0 -0 -0 -0 -0 -0 -0 -0 -0 -0 -0 -0 -0 0 0 0 0 0 0 0 0 0 0 0 0 0 0
-0 -0 0 0 0 0 0 0 -0 -0 -0 -0 -0 -0 -0 -0 -0 -0 -0 -0 -0 0 -0 -0 0 0 0 0 0 0 0 0 0 0 0 0 0 0 0 0 0 0 0
0 0 -0 -0 -0 -0 -0 -0 -0 -0 -0 -0 -0 -0 -0 -0 -0 -0 0 0 0 0 0 0 0 0 0 0 0 0 0 0 0 0 0 0 0 0 0 0 0 0 0
-0 -0 -0 -0 -0 -0 -0 -0 -0 -0 -0 -0 -0 -0 -0 -0 0 0 0 0 0 0 0 0 0 0 0 0 0 0 0 0 0 0 0 0 0 0 0 0 0 0 0
-0 -0 -0 -0 -0 -0 -0 -0 -0 -0 -0 -0 -0 -0 -0 0 0 0 0 0 0 0 0 0 0 0 0 0 0 0 0 0 0 0 0 0 0 0 0 0 0 0 0
-0 -0 -0 -0 -0 -0 -0 -0 -0 -0 -0 -0 -0 -0 -0 0 0 0 0 0 0 0 0 0 0 0 0 0 0 0 0 0 0 0 0 0 0 0 0 0 0 0 0
-0 -0 -0 -0 -0 -0 -0 -0 -0 -0 -0 -0 -0 -0 0 0 0 0 0 0 0 0 0 0 0 0 0 0 0 0 0 0 0 0 0 0 0 0 0 0 0 0 0
-0 -0 -0 -0 -0 -0 -0 -0 -0 -0 -0 0 0 0 0 0 0 0 0 0 0 0 0 0 0 0 0 0 0 0 0 0 0 0 0 0 0 0 0 0 0 0 0
-0 -0 -0 -0 -0 -0 -0 -0 -0 0 0 0 0 0 0 0 0 0 0 0 0 0 0 0 0 0 0 0 0 0 0 0 0 0 0 0 0 0 0 0 0 0 0
0 0 -0 0 0 -0 0 0 0 0 0 0 0 0 0 0 0 0 0 0 0 0 0 0 0 0 0 0 0 0 0 0 0 0 0 0 0 0 0 0 0 0 0
0 0 0 0 0 0 0 0 0 0 0 0 0 0 0 0 0 0 0 0 0 0 0 0 0 0 0 0 0 0 0 0 0 0 0 0 0 0 0 0 0 0 0
0 0 0 0 0 0 0 0 0 0 0 0 0 0 0 0 0 0 0 0 0 0 0 0 0 0 0 0 0 0 0 0 0 0 0 0 0 0 0 0 0 0 0
0 0 0 0 0 0 0 0 0 0 0 0 0 0 0 0 0 0 0 0 0 0 0 0 0 0 0 0 0 0 0 0 0 0 0 0 0 0 0 0 0 0 0
0 0 0 0 0 0 0 0 0 0 0 0 0 0 0 0 0 0 0 0 0 0 0 0 0 0 0 0 0 0 0 0 0 0 0 0 0 0 0 0 0 0 0
0 0 0 0 0 0 0 0 0 0 0 0 0 0 0 0 0 0 0 0 0 0 0 0 0 0 0 0 0 0 0 0 0 0 0 0 0 0 0 0 0 0 0
0 0 0 0 0 0 0 0 0 0 0 0 0 0 0 0 0 0 0 0 0 0 0 0 0 0 0 0 0 0 0 0 0 0 0 0 0 0 0 0 0 0 0
0 0 0 0 0 0 0 0 0 0 0 0 0 0 0 0 0 0 0 0 0 0 0 0 0 0 0 0 0 0 0 0 0 0 0 0 0 0 0 0 0 0 0
0 0 0 0 0 0 0 0 0 0 0 0 0 0 0 0 0 0 0 0 0 0 0 0 0 0 0 0 0 0 0 0 0 0 0 0 0 0 0 0 0 0 0
Wind_Speed_500mb
34 35 35 35 30 23 22 21 20 19 19 16 11 18 18 21 24 23 23 23 26 31 31 32 31 26 24 21 33 33 32 29 33 30 29 29 29 26 23 23 27 33 30
41 45 39 30 22 23 22 25 23 23 24 22 17 19 21 21 23 24 25 28 32 36 35 33 32 32 32 31 32 32 33 39 40 39 40 37 30 30 30 34 35 37 37
45 43 33 27 25 25 21 22 22 25 29 23 18 19 17 17 23 24 26 29 31 35 34 34 33 33 34 35 38 38 42 43 44 42 42 35 32 30 31 33 35 37 35
47 39 33 30 25 22 17 19 18 20 31 26 19 14 11 14 20 24 26 33 36 33 30 30 31 30 38 40 34 33 40 40 38 33 35 35 27 25 26 33 40 38 32
44 34 32 31 22 21 19 20 20 18 24 23 15 8 8 16 20 21 23 28 31 33 27 27 28 34 35 35 34 34 35 33 27 30 32 27 21 21 29 27 32 35 36
38 40 34 27 23 24 22 21 20 18 18 13 11 8 12 16 18 19 18 21 20 31 25 20 29 35 28 26 25 30 29 22 15 14 22 26 24 19 27 36 27 30 33
44 40 33 30 26 24 25 21 20 19 19 15 14 11 12 15 16 16 15 15 19 27 21 24 28 24 21 17 20 24 18 12 7 8 23 26 26 26 28 30 28 35 33
41 38 30 25 23 21 22 20 19 19 18 17 14 14 13 14 13 15 14 10 17 30 18 16 14 15 13 17 17 21 12 8 6 10 16 24 22 24 26 31 27 28 28
38 36 31 27 24 21 19 18 18 17 17 17 15 14 14 13 13 13 11 7 11 19 16 12 10 10 9 9 9 11 9 7 7 9 10 22 23 21 25 24 26 25 26
38 33 30 30 27 23 20 18 17 17 15 13 12 12 12 12 12 10 8 6 6 13 12 11 9 8 6 3 2 4 6 7 5 9 11 21 23 21 18 23 21 23 23
40 36 32 31 29 26 22 19 18 17 14 12 10 8 8 8 8 8 7 6 5 11 8 9 8 6 3 0 1 3 7 3 3 7 11 5 17 18 12 15 18 22 16
47 43 38 35 32 30 26 23 21 18 16 15 12 10 7 6 5 6 5 5 4 6 6 7 6 5 4 2 4 2 5 8 6 2 9 8 12 15 15 9 13 18 15
46 45 42 39 35 34 30 28 25 21 19 18 16 12 8 4 2 3 2 2 1 3 4 4 3 3 3 4 5 4 8 10 8 6 7 10 7 10 11 10 10 12 15
49 47 44 41 39 37 35 33 29 26 24 21 18 17 15 12 9 8 7 5 3 1 1 2 2 3 5 5 6 5 7 11 10 12 15 18 13 11 12 10 9 11 12
47 44 43 41 40 38 37 36 36 33 31 28 27 25 22 18 15 13 12 11 9 7 7 6 3 0 3 5 7 7 7 11 17 14 16 21 16 14 15 14 13 12 13
40 39 37 39 38 38 38 37 39 38 36 35 33 29 27 25 23 21 21 17 16 12 11 9 8 7 9 13 13 12 13 17 21 22 24 28 30 16 23 21 18 18 14
39 36 39 37 37 39 37 35 33 34 35 38 37 36 34 33 31 30 28 22 18 18 18 16 16 15 18 19 22 18 20 25 27 30 32 33 33 32 27 30 28 27 23
43 44 39 40 43 43 44 42 40 37 34 32 34 38 39 38 38 37 35 30 28 25 29 29 30 29 28 28 28 27 31 32 36 38 35 36 39 42 41 38 37 35 36
44 46 47 47 48 48 50 50 48 46 44 41 38 37 36 37 38 41 38 36 37 36 38 39 40 44 44 42 42 39 44 45 47 49 47 44 47 48 50 49 48 53 45
46 46 49 50 51 52 53 56 57 58 57 55 53 47 42 42 42 47 46 44 45 48 48 45 45 48 52 55 55 57 54 55 57 58 58 60 59 59 61 59 56 60 62
41 45 49 50 52 54 57 61 64 64 63 63 63 57 53 50 49 52 53 54 55 59 56 53 54 58 52 62 62 69 67 66 69 69 67 70 72 72 69 68 71 70 70
45 44 46 48 53 55 56 57 62 62 63 62 64 63 62 60 58 56 59 60 57 61 65 65 67 67 63 63 73 70 60 66 74 71 78 79 80 80 79 78 79 78 80
27 39 40 40 43 50 54 57 59 62 65 65 66 65 62 61 62 64 65 68 69 68 68 71 75 79 79 82 72 75 27 44 53 56 61 63 70 73 81 83 85 88 88
21 8 13 23 30 33 39 49 56 60 64 63 64 65 64 61 62 64 66 70 73 71 70 75 77 80 83 86 89 94 96 95 62 53 61 64 67 70 71 76 82 91 95
35 27 23 15 5 9 19 26 33 44 52 55 59 62 63 65 64 64 64 67 68 70 72 76 77 77 78 80 86 90 92 100 108 96 80 78 88 90 86 86 76 88 95
53 51 46 37 29 21 12 4 7 16 24 33 38 46 51 54 57 59 59 58 63 72 69 73 74 75 74 80 93 88 95 93 85 85 104 114 107 97 92 94 94 85 94
Wind_Direction_500mb
154 140 137 152 116 115 120 110 106 110 114 119 124 92 80 78 72 81 84 82 86 84 101 101 103 109 128 136 108 113 110 105 98 97 95 93 92 93 96 91 92 90 94
149 141 136 129 133 132 117 114 120 116 129 118 112 98 92 78 74 81 85 87 95 92 91 101 106 105 107 105 105 108 103 90 90 89 89 88 88 82 90 91 88 91 90
152 149 146 136 132 140 151 137 125 119 118 120 114 98 92 78 82 92 91 90 92 95 90 91 93 100 98 96 96 96 98 103 100 106 108 99 89 92 94 91 92 95 92
155 154 153 142 136 128 124 130 128 123 118 111 114 101 90 89 90 102 100 93 93 97 101 88 93 92 102 96 95 101 109 109 110 116 111 110 106 97 100 103 100 100 97
161 158 154 143 134 130 125 111 111 120 131 130 137 128 73 72 81 99 100 104 100 104 96 89 84 95 90 100 112 112 115 116 113 117 110 106 105 109 108 98 98 93 92
163 155 148 142 141 130 123 119 120 128 137 140 125 114 65 73 83 96 106 105 100 111 113 98 95 98 108 115 115 123 114 112 123 125 109 108 102 108 98 96 94 100 97
161 159 153 149 141 138 131 130 130 131 134 129 116 105 88 90 88 96 107 108 96 101 101 102 99 110 113 118 110 100 100 92 79 87 93 97 103 104 103 99 100 99 102
166 166 164 157 147 145 138 143 143 136 131 126 117 103 98 96 99 99 115 114 95 115 127 115 111 110 100 97 100 102 82 42 61 87 97 114 115 111 108 98 98 94 92
176 175 177 174 166 160 148 151 157 148 144 136 123 103 89 86 83 86 92 80 84 116 129 120 110 104 86 76 67 68 28 53 66 66 62 112 110 108 104 107 101 101 99
183 188 187 185 181 177 167 161 167 164 153 141 126 108 95 89 92 94 95 94 88 117 125 112 123 120 108 91 51 16 64 97 53 56 60 121 118 120 118 112 113 106 104
193 196 197 196 193 192 187 177 181 177 173 170 152 133 114 103 104 115 120 118 109 116 113 124 145 133 117 313 10 70 125 100 64 36 24 92 129 123 117 123 121 118 111
198 198 201 203 203 204 201 200 200 195 196 194 189 186 172 150 138 128 117 117 110 87 107 116 131 126 112 66 33 35 181 160 169 38 354 344 145 140 128 129 127 121 124
206 208 208 209 211 214 214 215 215 215 215 213 213 214 219 232 216 202 176 191 102 54 58 73 75 74 53 26 360 326 215 194 231 272 305 311 211 164 145 141 125 139 134
212 216 217 217 220 222 223 226 228 230 233 234 235 240 242 243 239 231 228 233 235 263 219 142 88 49 28 9 354 326 211 243 267 261 285 291 256 214 181 172 177 173 157
216 218 219 221 225 227 233 234 236 238 240 240 239 241 244 247 248 249 252 252 240 241 228 204 170 137 342 332 332 311 282 266 275 271 267 278 239 239 232 202 207 207 185
218 221 220 221 225 231 239 243 246 244 244 245 246 248 250 253 253 251 248 255 245 241 237 237 245 276 305 310 299 297 291 270 274 283 282 281 284 260 251 244 239 242 229
227 223 223 226 229 234 241 247 251 253 252 252 254 254 253 254 255 254 249 252 256 258 256 242 236 265 280 295 287 284 285 277 278 282 285 285 281 278 258 246 231 228 236
235 236 233 232 233 237 242 248 253 257 260 262 259 256 256 256 253 253 253 252 256 257 257 259 260 261 267 262 268 277 275 286 277 267 263 283 290 280 273 262 263 231 224
243 241 240 240 241 242 245 248 253 258 261 265 265 259 257 257 255 255 258 257 255 259 259 263 265 263 262 264 266 263 264 264 264 262 267 265 262 266 267 266 265 266 254
244 244 243 245 247 246 246 248 251 252 256 259 262 263 264 263 262 260 259 262 260 259 259 259 266 270 268 268 267 265 267 266 264 263 262 260 263 269 263 262 264 262 261
238 239 242 243 245 245 244 245 247 251 254 257 261 268 270 268 266 263 263 264 263 265 269 262 263 264 270 272 266 269 272 268 270 267 263 262 262 262 264 264 261 261 260
234 234 239 242 245 247 250 252 252 256 260 262 264 268 272 273 272 269 266 264 263 264 266 265 263 262 264 267 261 266 263 268 276 275 268 267 268 265 266 266 263 263 263
226 230 238 242 246 247 248 251 253 255 259 262 262 265 269 274 276 275 273 270 271 267 267 268 266 263 262 262 265 258 243 262 273 275 273 270 269 264 267 267 265 263 260
87 126 223 242 247 250 250 251 254 258 259 264 268 273 275 277 278 280 278 274 276 279 275 274 267 270 263 268 263 260 263 258 260 274 266 271 271 268 269 268 267 265 265
83 82 82 89 128 230 246 255 261 264 266 269 270 273 275 278 281 281 281 278 278 280 277 279 273 276 272 272 272 273 272 264 261 261 271 269 270 275 274 267 275 267 267
78 78 77 75 74 69 61 14 278 269 273 274 275 277 280 281 282 282 283 282 282 280 279 278 282 280 280 280 277 273 275 267 276 265 275 270 270 279 276 275 269 275 274
Wind_Speed_850mb
34 35 35 35 30 23 22 21 20 19 19 16 11 18 18 21 24 23 23 23 26 31 31 32 31 26 24 21 33 33 32 29 33 30 29 29 29 26 23 23 27 33 30
41 45 39 30 22 23 22 25 23 23 24 22 17 19 21 21 23 24 25 28 32 36 35 33 32 32 32 31 32 32 33 39 40 39 40 37 30 30 30 34 35 37 37
45 43 33 27 25 25 21 22 22 25 29 23 18 19 17 17 23 24 26 29 31 35 34 34 33 33 34 35 38 38 42 43 44 42 42 35 32 30 31 33 35 37 35
47 39 33 30 25 22 17 19 18 20 31 26 19 14 11 14 20 24 26 33 36 33 30 30 31 30 38 40 34 33 40 40 38 33 35 35 27 25 26 33 40 38 32
44 34 32 31 22 21 19 20 20 18 24 23 15 8 8 16 20 21 23 28 31 33 27 27 28 34 35 35 34 34 35 33 27 30 32 27 21 21 29 27 32 35 36
38 40 34 27 23 24 22 21 20 18 18 13 11 8 12 16 18 19 18 21 20 31 25 20 29 35 28 26 25 30 29 22 15 14 22 26 24 19 27 36 27 30 33
44 40 33 30 26 24 25 21 20 19 19 15 14 11 12 15 16 16 15 15 19 27 21 24 28 24 21 17 20 24 18 12 7 8 23 26 26 26 28 30 28 35 33
41 38 30 25 23 21 22 20 19 19 18 17 14 14 13 14 13 15 14 10 17 30 18 16 14 15 13 17 17 21 12 8 6 10 16 24 22 24 26 31 27 28 28
38 36 31 27 24 21 19 18 18 17 17 17 15 14 14 13 13 13 11 7 11 19 16 12 10 10 9 9 9 11 9 7 7 9 10 22 23 21 25 24 26 25 26
38 33 30 30 27 23 20 18 17 17 15 13 12 12 12 12 12 10 8 6 6 13 12 11 9 8 6 3 2 4 6 7 5 9 11 21 23 21 18 23 21 23 23
40 36 32 31 29 26 22 19 18 17 14 12 10 8 8 8 8 8 7 6 5 11 8 9 8 6 3 0 1 3 7 3 3 7 11 5 17 18 12 15 18 22 16
47 43 38 35 32 30 26 23 21 18 16 15 12 10 7 6 5 6 5 5 4 6 6 7 6 5 4 2 4 2 5 8 6 2 9 8 12 15 15 9 13 18 15
46 45 42 39 35 34 30 28 25 21 19 18 16 12 8 4 2 3 2 2 1 3 4 4 3 3 3 4 5 4 8 10 8 6 7 10 7 10 11 10 10 12 15
49 47 44 41 39 37 35 33 29 26 24 21 18 17 15 12 9 8 7 5 3 1 1 2 2 3 5 5 6 5 7 11 10 12 15 18 13 11 12 10 9 11 12
47 44 43 41 40 38 37 36 36 33 31 28 27 25 22 18 15 13 12 11 9 7 7 6 3 0 3 5 7 7 7 11 17 14 16 21 16 14 15 14 13 12 13
40 39 37 39 38 38 38 37 39 38 36 35 33 29 27 25 23 21 21 17 16 12 11 9 8 7 9 13 13 12 13 17 21 22 24 28 30 16 23 21 18 18 14
39 36 39 37 37 39 37 35 33 34 35 38 37 36 34 33 31 30 28 22 18 18 18 16 16 15 18 19 22 18 20 25 27 30 32 33 33 32 27 30 28 27 23
43 44 39 40 43 43 44 42 40 37 34 32 34 38 39 38 38 37 35 30 28 25 29 29 30 29 28 28 28 27 31 32 36 38 35 36 39 42 41 38 37 35 36
44 46 47 47 48 48 50 50 48 46 44 41 38 37 36 37 38 41 38 36 37 36 38 39 40 44 44 42 42 39 44 45 47 49 47 44 47 48 50 49 48 53 45
46 46 49 50 51 52 53 56 57 58 57 55 53 47 42 42 42 47 46 44 45 48 48 45 45 48 52 55 55 57 54 55 57 58 58 60 59 59 61 59 56 60 62
41 45 49 50 52 54 57 61 64 64 63 63 63 57 53 50 49 52 53 54 55 59 56 53 54 58 52 62 62 69 67 66 69 69 67 70 72 72 69 68 71 70 70
45 44 46 48 53 55 56 57 62 62 63 62 64 63 62 60 58 56 59 60 57 61 65 65 67 67 63 63 73 70 60 66 74 71 78 79 80 80 79 78 79 78 80
27 39 40 40 43 50 54 57 59 62 65 65 66 65 62 61 62 64 65 68 69 68 68 71 75 79 79 82 72 75 27 44 53 56 61 63 70 73 81 83 85 88 88
21 8 13 23 30 33 39 49 56 60 64 63 64 65 64 61 62 64 66 70 73 71 70 75 77 80 83 86 89 94 96 95 62 53 61 64 67 70 71 76 82 91 95
35 27 23 15 5 9 19 26 33 44 52 55 59 62 63 65 64 64 64 67 68 70 72 76 77 77 78 80 86 90 92 100 108 96 80 78 88 90 86 86 76 88 95
53 51 46 37 29 21 12 4 7 16 24 33 38 46 51 54 57 59 59 58 63 72 69 73 74 75 74 80 93 88 95 93 85 85 104 114 107 97 92 94 94 85 94
Wind_Direction_850mb
154 140 137 152 116 115 120 110 106 110 114 119 124 92 80 78 72 81 84 82 86 84 101 101 103 109 128 136 108 113 110 105 98 97 95 93 92 93 96 91 92 90 94
149 141 136 129 133 132 117 114 120 116 129 118 112 98 92 78 74 81 85 87 95 92 91 101 106 105 107 105 105 108 103 90 90 89 89 88 88 82 90 91 88 91 90
152 149 146 136 132 140 151 137 125 119 118 120 114 98 92 78 82 92 91 90 92 95 90 91 93 100 98 96 96 96 98 103 100 106 108 99 89 92 94 91 92 95 92
155 154 153 142 136 128 124 130 128 123 118 111 114 101 90 89 90 102 100 93 93 97 101 88 93 92 102 96 95 101 109 109 110 116 111 110 106 97 100 103 100 100 97
161 158 154 143 134 130 125 111 111 120 131 130 137 128 73 72 81 99 100 104 100 104 96 89 84 95 90 100 112 112 115 116 113 117 110 106 105 109 108 98 98 93 92
163 155 148 142 141 130 123 119 120 128 137 140 125 114 65 73 83 96 106 105 100 111 113 98 95 98 108 115 115 123 114 112 123 125 109 108 102 108 98 96 94 100 97
161 159 153 149 141 138 131 130 130 131 134 129 116 105 88 90 88 96 107 108 96 101 101 102 99 110 113 118 110 100 100 92 79 87 93 97 103 104 103 99 100 99 102
166 166 164 157 147 145 138 143 143 136 131 126 117 103 98 96 99 99 115 114 95 115 127 115 111 110 100 97 100 102 82 42 61 87 97 114 115 111 108 98 98 94 92
176 175 177 174 166 160 148 151 157 148 144 136 123 103 89 86 83 86 92 80 84 116 129 120 110 104 86 76 67 68 28 53 66 66 62 112 110 108 104 107 101 101 99
183 188 187 185 181 177 167 161 167 164 153 141 126 108 95 89 92 94 95 94 88 117 125 112 123 120 108 91 51 16 64 97 53 56 60 121 118 120 118 112 113 106 104
193 196 197 196 193 192 187 177 181 177 173 170 152 133 114 103 104 115 120 118 109 116 113 124 145 133 117 313 10 70 125 100 64 36 24 92 129 123 117 123 121 118 111
198 198 201 203 203 204 201 200 200 195 196 194 189 186 172 150 138 128 117 117 110 87 107 116 131 126 112 66 33 35 181 160 169 38 354 344 145 140 128 129 127 121 124
206 208 208 209 211 214 214 215 215 215 215 213 213 214 219 232 216 202 176 191 102 54 58 73 75 74 53 26 360 326 215 194 231 272 305 311 211 164 145 141 125 139 134
212 216 217 217 220 222 223 226 228 230 233 234 235 240 242 243 239 231 228 233 235 263 219 142 88 49 28 9 354 326 211 243 267 261 285 291 256 214 181 172 177 173 157
216 218 219 221 225 227 233 234 236 238 240 240 239 241 244 247 248 249 252 252 240 241 228 204 170 137 342 332 332 311 282 266 275 271 267 278 239 239 232 202 207 207 185
218 221 220 221 225 231 239 243 246 244 244 245 246 248 250 253 253 251 248 255 245 241 237 237 245 276 305 310 299 297 291 270 274 283 282 281 284 260 251 244 239 242 229
227 223 223 226 229 234 241 247 251 253 252 252 254 254 253 254 255 254 249 252 256 258 256 242 236 265 280 295 287 284 285 277 278 282 285 285 281 278 258 246 231 228 236
235 236 233 232 233 237 242 248 253 257 260 262 259 256 256 256 253 253 253 252 256 257 257 259 260 261 267 262 268 277 275 286 277 267 263 283 290 280 273 262 263 231 224
243 241 240 240 241 242 245 248 253 258 261 265 265 259 257 257 255 255 258 257 255 259 259 263 265 263 262 264 266 263 264 264 264 262 267 265 262 266 267 266 265 266 254
244 244 243 245 247 246 246 248 251 252 256 259 262 263 264 263 262 260 259 262 260 259 259 259 266 270 268 268 267 265 267 266 264 263 262 260 263 269 263 262 264 262 261
238 239 242 243 245 245 244 245 247 251 254 257 261 268 270 268 266 263 263 264 263 265 269 262 263 264 270 272 266 269 272 268 270 267 263 262 262 262 264 264 261 261 260
234 234 239 242 245 247 250 252 252 256 260 262 264 268 272 273 272 269 266 264 263 264 266 265 263 262 264 267 261 266 263 268 276 275 268 267 268 265 266 266 263 263 263
226 230 238 242 246 247 248 251 253 255 259 262 262 265 269 274 276 275 273 270 271 267 267 268 266 263 262 262 265 258 243 262 273 275 273 270 269 264 267 267 265 263 260
87 126 223 242 247 250 250 251 254 258 259 264 268 273 275 277 278 280 278 274 276 279 275 274 267 270 263 268 263 260 263 258 260 274 266 271 271 268 269 268 267 265 265
83 82 82 89 128 230 246 255 261 264 266 269 270 273 275 278 281 281 281 278 278 280 277 279 273 276 272 272 272 273 272 264 261 261 271 269 270 275 274 267 275 267 267
78 78 77 75 74 69 61 14 278 269 273 274 275 277 280 281 282 282 283 282 282 280 279 278 282 280 280 280 277 273 275 267 276 265 275 270 270 279 276 275 269 275 274